sat.trackr.live / text

‹ back to catalog

STARLINK-6224

NORAD 56425 · 2023-061BD

PAYLOAD ACTIVE UNKNOWN

§ Identity

Operator
Country
US
Launch date
2023-05-04
Launch site
AFETR
Launch vehicle
Mass (kg)
RCS (m²)

Purposes: comms

External: N2YO · Heavens-Above · Gunter

§ Orbital elements

Epoch: 2026-09-20T23:16:08.152320Z

Period
94.27 min
Inclination
43.0030°
Eccentricity
0.0001632
Mean motion
15.27575098 rev/d
Perigee alt
481.9 km
Apogee alt
484.2 km
Semi-major
6,861.2 km
B*
1.6394e-5
RAAN
156.8482°
Arg perigee
266.0029°
Mean anomaly
94.0636°
Rev number
18,682

§ Raw data

STARLINK-62241 56425U 23061BD  26263.96953880  .00000189  00000+0  16394-4 0  99952 56425  43.0030 156.8482 0001632 266.0029  94.0636 15.27575098186827

JSON: /api/v1/satellites/56425 · /tle

For live sub-satellite position, see the globe view (requires WebGL).

§ Visibility from observer

Set your observer location to see the next 7 days of passes ≥ 10°. The values pass through the URL so the page stays shareable.

No JS? Fill the form by hand. The geolocation button needs JavaScript.